P/2004 F3 ( NEAT )

Japanese version
Home page
Total 5,708 html files since Dec. 4, 1995
Updated on April 12, 2008

---------------------------------------------------------------------

* Profile

Discovery Date March 28, 2004
Magnitude 17.1 mag
Discoverer Near-Earth-Asteroid Tracking Team (Jet Propulsion Laboratory)

* Pictures

* Orbital Elements

The following orbital elements are taken from MPC 57793:

Epoch 2004 Dec. 21.0 TT = JDT 2453360.5
T 2005 Jan. 4.2996 TT                                   MPC
q   2.864067             (2000.0)            P               Q
n   0.1225303      Peri.  176.1249      -0.2569912      +0.9278672
a   4.014583       Node    78.8314      -0.8939072      -0.1219683
e   0.286584       Incl.   15.9879      -0.3672675      -0.3524007
P   8.04
From 1021 observations 2004 Jan. 29-2006 Oct. 1, mean residual 0".5.

* Finding Charts

* Magnitudes Graph

        m1 = 9.5 + 5 log d + 7.5 log r

---------------------------------------------------------------------

The orbital elements are published at the MPC Ephemerides and Orbital Elements.
The charts are made with StellaNavigator Ver.2.0 for Windows (AstroArts / ASCII).
The magnitudes graphs are made with Comet for Windows.

---------------------------------------------------------------------

Copyright(C) 1995-2007 Seiichi Yoshida (comet@aerith.net). All rights reserved.